Location: New Mesquite
(33.1168°N, 96.4336°W)
Time: 21:59:49
(UTC+00:00)

OPS-SAT - Pass Details

Date: 07 October 2022
Orbit: 486 x 504 km, 97.5° (Epoch: 05 December)

Event Time Altitude Azimuth Distance (km) Brightness Sun altitude
Rises 01:40:53 0° 343° (NNW) 2,629 ? -21.2°
Reaches altitude 10° 01:44:56 10° 299° (WNW) 1,736 ? -22.0°
Maximum altitude 01:45:23 10° 292° (WNW) 1,723 ? -22.1°
Drops below altitude 10° 01:45:51 10° 285° (WNW) 1,734 ? -22.2°
Sets 01:49:53 0° 241° (WSW) 2,610 ? -23.1°
